CZ-4B R/B (48158 NORAD) Tracking and Keplerian Element Data

This shows tracking and keplerian element data for the satellite.

Feedback or suggestion? Click here.




ElementValue
Catalog48158
NameCZ-4B R/B
Epoch Orbit406
Epoch Day127.92039495
Epoch Year2021
RAAN138.0544
Inclination99.5828
Eccentricity0.0159331
Argument of Perigee301.8338
Mean Anonmoly56.7399
Mean Motion14.04958528
Decay Rate5.8E-07
L11 48158U 21028B 21127.92039495 .00000058 00000-0 60119-4 0 9997
L22 48158 99.5828 138.0544 0159331 301.8338 56.7399 14.04958528 4067



Live tracking and technical data element details for CZ-4B R/B (NORAD 48158). CZ-4B R/B can be tracked NOW for your location showing map with azimuth and elevation plus other details from your city location.







IsCatalogInMostPopularTable: catalog: 48158, numindb: 97
Update: records affected: 1



GetName: 48158 CZ-4B R/B

Hit Count: updated at: Sun, 28 May 2023 05:39:09 GMT